Time,TemperatureF,DewpointF,PressureIn,WindDirection,WindDirectionDegrees,WindSpeedMPH,WindSpeedGustMPH,Humidity,HourlyPrecipIn,Conditions,Clouds,dailyrainin,SoftwareType,DateUTC
2013-05-14 00:00:00,38.8,28.1,30.07,SSW,192,0.0,0.0,65,0.00,,CLR,0.00,VWS V13.00,2013-05-14 04:00:00,
2013-05-14 00:01:00,38.8,28.1,30.07,SSW,192,0.0,0.0,65,0.00,,CLR,0.00,VWS V13.00,2013-05-14 04:01:00,
2013-05-14 00:06:00,38.8,28.1,30.07,South,186,0.0,3.1,65,0.00,,CLR,0.00,VWS V13.00,2013-05-14 04:06:00,
2013-05-14 00:11:00,38.7,27.9,30.07,SSE,159,0.0,4.0,65,0.00,,CLR,0.00,VWS V13.00,2013-05-14 04:11:00,
2013-05-14 00:16:00,38.8,28.1,30.07,SSE,159,0.0,4.0,65,0.00,,CLR,0.00,VWS V13.00,2013-05-14 04:16:00,
2013-05-14 00:20:00,38.7,27.9,30.07,SSE,159,0.0,4.0,65,0.00,,CLR,0.00,VWS V13.00,2013-05-14 04:20:00,
2013-05-14 00:22:00,38.7,27.9,30.07,SSE,159,0.0,0.0,65,0.00,,CLR,0.00,VWS V13.00,2013-05-14 04:22:00,
2013-05-14 00:27:00,38.7,27.9,30.07,SSE,159,0.0,0.0,65,0.00,,CLR,0.00,VWS V13.00,2013-05-14 04:27:00,
2013-05-14 00:32:00,38.5,28.1,30.07,SSE,159,0.0,3.1,66,0.00,,CLR,0.00,VWS V13.00,2013-05-14 04:32:00,
2013-05-14 00:37:00,38.5,28.1,30.07,SSE,159,0.0,3.1,66,0.00,,CLR,0.00,VWS V13.00,2013-05-14 04:37:00,
2013-05-14 00:40:00,38.5,28.1,30.07,SSE,159,0.0,3.1,66,0.00,,CLR,0.00,VWS V13.00,2013-05-14 04:40:00,
2013-05-14 00:42:00,38.7,28.3,30.07,SSE,159,0.0,0.0,66,0.00,,CLR,0.00,VWS V13.00,2013-05-14 04:42:00,
2013-05-14 00:47:00,38.7,28.3,30.07,SSW,200,0.0,2.7,66,0.00,,CLR,0.00,VWS V13.00,2013-05-14 04:47:00,
2013-05-14 00:52:00,38.5,28.1,30.07,SSW,200,0.0,2.7,66,0.00,,CLR,0.00,VWS V13.00,2013-05-14 04:52:00,
2013-05-14 00:57:00,38.3,28.0,30.07,SSW,200,0.0,2.7,66,0.00,,CLR,0.00,VWS V13.00,2013-05-14 04:57:00,
2013-05-14 01:00:00,38.1,28.1,30.07,SSW,200,0.0,2.7,67,0.00,,CLR,0.00,VWS V13.00,2013-05-14 05:00:00,
2013-05-14 01:02:00,38.1,28.1,30.07,SSW,200,0.0,0.0,67,0.00,,CLR,0.00,VWS V13.00,2013-05-14 05:02:00,
2013-05-14 01:07:00,38.1,28.1,30.07,SSW,200,0.0,0.0,67,0.00,,CLR,0.00,VWS V13.00,2013-05-14 05:07:00,
2013-05-14 01:12:00,37.9,28.0,30.07,SSW,200,0.0,2.2,67,0.00,,CLR,0.00,VWS V13.00,2013-05-14 05:12:00,
2013-05-14 01:17:00,37.9,28.3,30.07,South,189,2.2,2.2,68,0.00,,CLR,0.00,VWS V13.00,2013-05-14 05:17:00,
2013-05-14 01:20:00,38.1,28.5,30.07,SW,219,0.0,4.0,68,0.00,,CLR,0.00,VWS V13.00,2013-05-14 05:20:00,
2013-05-14 01:22:00,38.3,28.3,30.07,WNW,289,2.2,3.6,67,0.00,,CLR,0.00,VWS V13.00,2013-05-14 05:22:00,
2013-05-14 01:27:00,38.3,28.3,30.07,SW,228,0.0,3.6,67,0.00,,CLR,0.00,VWS V13.00,2013-05-14 05:27:00,
2013-05-14 01:32:00,38.1,28.1,30.07,SW,228,0.0,3.6,67,0.00,,CLR,0.00,VWS V13.00,2013-05-14 05:32:00,
2013-05-14 01:38:00,37.9,28.0,30.07,SW,228,0.0,3.6,67,0.00,,CLR,0.00,VWS V13.00,2013-05-14 05:38:00,
2013-05-14 01:40:00,37.9,28.0,30.07,SW,228,0.0,3.6,67,0.00,,CLR,0.00,VWS V13.00,2013-05-14 05:40:00,
2013-05-14 01:43:00,37.9,28.0,30.07,SW,228,0.0,0.0,67,0.00,,CLR,0.00,VWS V13.00,2013-05-14 05:43:00,
2013-05-14 01:48:00,37.9,28.0,30.07,SW,223,0.0,2.7,67,0.00,,CLR,0.00,VWS V13.00,2013-05-14 05:48:00,
2013-05-14 01:53:00,37.8,27.8,30.07,SW,223,0.0,2.7,67,0.00,,CLR,0.00,VWS V13.00,2013-05-14 05:53:00,
2013-05-14 01:58:00,37.8,27.8,30.07,SW,223,0.0,2.7,67,0.00,,CLR,0.00,VWS V13.00,2013-05-14 05:58:00,
2013-05-14 02:03:00,37.9,28.0,30.07,SSW,194,0.0,2.7,67,0.00,,CLR,0.00,VWS V13.00,2013-05-14 06:03:00,
2013-05-14 02:08:00,37.8,27.8,30.07,SSW,194,0.0,2.7,67,0.00,,CLR,0.00,VWS V13.00,2013-05-14 06:08:00,
2013-05-14 02:13:00,37.6,27.6,30.07,SE,126,2.2,4.9,67,0.00,,CLR,0.00,VWS V13.00,2013-05-14 06:13:00,
2013-05-14 02:18:00,37.9,28.0,30.07,West,273,0.0,5.4,67,0.00,,CLR,0.00,VWS V13.00,2013-05-14 06:18:00,
2013-05-14 02:20:00,37.9,28.0,30.07,SSW,213,0.0,5.4,67,0.00,,CLR,0.00,VWS V13.00,2013-05-14 06:20:00,
2013-05-14 02:23:00,37.8,27.4,30.07,SSW,211,0.0,2.2,66,0.00,,CLR,0.00,VWS V13.00,2013-05-14 06:23:00,
2013-05-14 02:28:00,37.8,27.4,30.07,SW,225,0.0,4.0,66,0.00,,CLR,0.00,VWS V13.00,2013-05-14 06:28:00,
2013-05-14 02:33:00,37.6,27.3,30.07,West,272,0.0,4.0,66,0.00,,CLR,0.00,VWS V13.00,2013-05-14 06:33:00,
2013-05-14 02:38:00,37.6,27.3,30.07,SW,217,0.0,4.0,66,0.00,,CLR,0.00,VWS V13.00,2013-05-14 06:38:00,
2013-05-14 02:40:00,37.6,27.3,30.07,SSW,204,2.2,4.0,66,0.00,,CLR,0.00,VWS V13.00,2013-05-14 06:40:00,
2013-05-14 02:43:00,37.6,27.3,30.07,SSW,204,0.0,2.2,66,0.00,,CLR,0.00,VWS V13.00,2013-05-14 06:43:00,
2013-05-14 02:48:00,37.4,27.1,30.07,SW,229,3.6,3.6,66,0.00,,CLR,0.00,VWS V13.00,2013-05-14 06:48:00,
2013-05-14 02:53:00,37.4,27.1,30.07,SW,224,0.0,3.6,66,0.00,,CLR,0.00,VWS V13.00,2013-05-14 06:53:00,
2013-05-14 02:58:00,37.2,26.9,30.07,SW,224,0.0,3.6,66,0.00,,CLR,0.00,VWS V13.00,2013-05-14 06:58:00,
2013-05-14 03:03:00,37.2,27.3,30.07,SW,224,0.0,0.0,67,0.00,,CLR,0.00,VWS V13.00,2013-05-14 07:03:00,
2013-05-14 03:08:00,37.0,27.1,30.07,SW,224,0.0,0.0,67,0.00,,CLR,0.00,VWS V13.00,2013-05-14 07:08:00,
2013-05-14 03:14:00,37.0,27.1,30.07,SW,224,0.0,0.0,67,0.00,,CLR,0.00,VWS V13.00,2013-05-14 07:14:00,
2013-05-14 03:19:00,36.9,26.9,30.07,SW,224,0.0,0.0,67,0.00,,CLR,0.00,VWS V13.00,2013-05-14 07:19:00,
2013-05-14 03:24:00,36.7,27.1,30.07,SW,224,0.0,0.0,68,0.00,,CLR,0.00,VWS V13.00,2013-05-14 07:24:00,
2013-05-14 03:29:00,36.7,26.8,30.07,SW,224,2.2,2.2,67,0.00,,CLR,0.00,VWS V13.00,2013-05-14 07:29:00,
2013-05-14 03:34:00,36.3,26.8,30.07,SW,224,0.0,2.2,68,0.00,,CLR,0.00,VWS V13.00,2013-05-14 07:34:00,
2013-05-14 03:39:00,36.3,26.8,30.07,SW,224,2.7,2.7,68,0.00,,CLR,0.00,VWS V13.00,2013-05-14 07:39:00,
2013-05-14 03:40:00,36.3,26.8,30.07,SW,224,0.0,2.7,68,0.00,,CLR,0.00,VWS V13.00,2013-05-14 07:40:00,
2013-05-14 03:44:00,36.1,27.0,30.07,SW,224,0.0,0.0,69,0.00,,CLR,0.00,VWS V13.00,2013-05-14 07:44:00,
2013-05-14 03:49:00,36.1,27.0,30.07,SW,217,2.2,2.7,69,0.00,,CLR,0.00,VWS V13.00,2013-05-14 07:49:00,
2013-05-14 03:54:00,36.1,27.0,30.07,SW,217,0.0,2.7,69,0.00,,CLR,0.00,VWS V13.00,2013-05-14 07:54:00,
2013-05-14 03:59:00,36.3,27.1,30.07,SSW,213,0.0,2.7,69,0.00,,CLR,0.00,VWS V13.00,2013-05-14 07:59:00,
2013-05-14 04:00:00,36.1,27.0,30.07,SSW,213,0.0,2.7,69,0.00,,CLR,0.00,VWS V13.00,2013-05-14 08:00:00,
2013-05-14 04:04:00,36.1,27.0,30.07,SSW,213,0.0,0.0,69,0.00,,CLR,0.00,VWS V13.00,2013-05-14 08:04:00,
2013-05-14 04:09:00,36.1,27.0,30.07,SSW,200,0.0,4.5,69,0.00,,CLR,0.00,VWS V13.00,2013-05-14 08:09:00,
2013-05-14 04:14:00,36.1,27.0,30.07,SSW,200,0.0,4.5,69,0.00,,CLR,0.00,VWS V13.00,2013-05-14 08:14:00,
2013-05-14 04:19:00,36.1,27.0,30.07,SSW,200,0.0,4.5,69,0.00,,CLR,0.00,VWS V13.00,2013-05-14 08:19:00,
2013-05-14 04:24:00,36.1,27.0,30.07,SW,228,0.0,3.1,69,0.00,,CLR,0.00,VWS V13.00,2013-05-14 08:24:00,
2013-05-14 04:29:00,36.0,26.8,30.07,SW,222,0.0,3.1,69,0.00,,CLR,0.00,VWS V13.00,2013-05-14 08:29:00,
2013-05-14 04:34:00,36.1,27.3,30.07,SW,234,0.0,4.0,70,0.00,,CLR,0.00,VWS V13.00,2013-05-14 08:34:00,
2013-05-14 04:39:00,36.1,27.0,30.07,SW,234,0.0,4.0,69,0.00,,CLR,0.00,VWS V13.00,2013-05-14 08:39:00,
2013-05-14 04:45:00,36.1,27.0,30.07,South,174,0.0,2.7,69,0.00,,CLR,0.00,VWS V13.00,2013-05-14 08:45:00,
2013-05-14 04:50:00,36.1,27.0,30.07,South,174,0.0,2.7,69,0.00,,CLR,0.00,VWS V13.00,2013-05-14 08:50:00,
2013-05-14 04:55:00,36.1,27.0,30.07,SSE,159,0.0,3.1,69,0.00,,CLR,0.00,VWS V13.00,2013-05-14 08:55:00,
2013-05-14 05:00:00,36.0,26.8,30.07,SSE,159,0.0,3.1,69,0.00,,CLR,0.00,VWS V13.00,2013-05-14 09:00:00,
2013-05-14 05:05:00,35.8,26.6,30.07,SSE,159,0.0,0.0,69,0.00,,CLR,0.00,VWS V13.00,2013-05-14 09:05:00,
2013-05-14 05:10:00,35.8,26.6,30.07,SSE,159,0.0,0.0,69,0.00,,CLR,0.00,VWS V13.00,2013-05-14 09:10:00,
2013-05-14 05:15:00,35.8,26.6,30.07,SSW,199,0.0,2.7,69,0.00,,CLR,0.00,VWS V13.00,2013-05-14 09:15:00,
2013-05-14 05:20:00,35.8,26.6,30.07,SSW,199,0.0,2.7,69,0.00,,CLR,0.00,VWS V13.00,2013-05-14 09:20:00,
2013-05-14 05:25:00,35.6,26.5,30.07,SSW,199,0.0,2.7,69,0.00,,CLR,0.00,VWS V13.00,2013-05-14 09:25:00,
2013-05-14 05:30:00,35.6,26.5,30.07,SSW,199,0.0,2.7,69,0.00,,CLR,0.00,VWS V13.00,2013-05-14 09:30:00,
2013-05-14 05:35:00,35.4,26.6,30.07,SSW,199,0.0,2.7,70,0.00,,CLR,0.00,VWS V13.00,2013-05-14 09:35:00,
2013-05-14 05:40:00,35.4,26.6,30.07,SSW,199,0.0,0.0,70,0.00,,CLR,0.00,VWS V13.00,2013-05-14 09:40:00,
2013-05-14 05:45:00,35.4,26.6,30.07,SSW,199,0.0,0.0,70,0.00,,CLR,0.00,VWS V13.00,2013-05-14 09:45:00,
2013-05-14 05:50:00,35.2,26.5,30.07,SSW,199,0.0,0.0,70,0.00,,CLR,0.00,VWS V13.00,2013-05-14 09:50:00,
2013-05-14 05:55:00,35.2,26.5,30.07,SSW,199,0.0,0.0,70,0.00,,CLR,0.00,VWS V13.00,2013-05-14 09:55:00,
2013-05-14 06:00:00,35.2,26.5,30.07,SSW,199,0.0,0.0,70,0.00,,CLR,0.00,VWS V13.00,2013-05-14 10:00:00,
2013-05-14 06:01:00,35.2,26.5,30.07,SSW,199,0.0,0.0,70,0.00,,CLR,0.00,VWS V13.00,2013-05-14 10:01:00,
2013-05-14 06:06:00,35.2,26.5,30.07,SSW,199,0.0,0.0,70,0.00,,CLR,0.00,VWS V13.00,2013-05-14 10:06:00,
2013-05-14 06:11:00,35.4,27.0,30.07,SSW,199,0.0,0.0,71,0.00,,CLR,0.00,VWS V13.00,2013-05-14 10:11:00,
2013-05-14 06:16:00,35.4,27.0,30.07,SSW,199,0.0,0.0,71,0.00,,CLR,0.00,VWS V13.00,2013-05-14 10:16:00,
2013-05-14 06:21:00,35.6,26.8,30.07,SSW,199,0.0,0.0,70,0.00,,CLR,0.00,VWS V13.00,2013-05-14 10:21:00,
2013-05-14 06:26:00,35.8,27.0,30.07,SSW,199,0.0,0.0,70,0.00,,CLR,0.00,VWS V13.00,2013-05-14 10:26:00,
2013-05-14 06:31:00,36.0,27.1,30.07,SSW,199,0.0,0.0,70,0.00,,CLR,0.00,VWS V13.00,2013-05-14 10:31:00,
2013-05-14 06:36:00,36.5,27.7,30.07,South,177,0.0,3.6,70,0.00,,CLR,0.00,VWS V13.00,2013-05-14 10:36:00,
2013-05-14 06:40:00,37.0,28.2,30.07,SSE,166,0.0,3.6,70,0.00,,CLR,0.00,VWS V13.00,2013-05-14 10:40:00,
2013-05-14 06:41:00,37.4,28.2,30.07,SSE,166,0.0,0.0,69,0.00,,CLR,0.00,VWS V13.00,2013-05-14 10:41:00,
2013-05-14 06:46:00,37.9,28.3,30.07,ESE,115,0.0,3.1,68,0.00,,CLR,0.00,VWS V13.00,2013-05-14 10:46:00,
2013-05-14 06:51:00,38.3,28.3,30.07,ESE,115,0.0,3.1,67,0.00,,CLR,0.00,VWS V13.00,2013-05-14 10:51:00,
2013-05-14 06:56:00,38.7,28.3,30.07,West,279,3.1,3.1,66,0.00,,CLR,0.00,VWS V13.00,2013-05-14 10:56:00,
2013-05-14 07:01:00,39.0,27.9,30.07,SW,220,3.6,3.6,64,0.00,,CLR,0.00,VWS V13.00,2013-05-14 11:01:00,
2013-05-14 07:06:00,40.6,28.6,30.07,SSW,207,0.0,3.6,62,0.00,,CLR,0.00,VWS V13.00,2013-05-14 11:06:00,
2013-05-14 07:11:00,40.5,28.1,30.07,SW,220,0.0,3.6,61,0.00,,CLR,0.00,VWS V13.00,2013-05-14 11:11:00,
2013-05-14 07:16:00,40.8,28.0,30.07,SSW,213,0.0,3.6,60,0.00,,CLR,0.00,VWS V13.00,2013-05-14 11:16:00,
2013-05-14 07:20:00,41.0,27.4,30.10,SW,220,4.0,4.0,58,0.00,,CLR,0.00,VWS V13.00,2013-05-14 11:20:00,
2013-05-14 07:21:00,41.0,27.0,30.10,WNW,288,0.0,4.0,57,0.00,,CLR,0.00,VWS V13.00,2013-05-14 11:21:00,
2013-05-14 07:27:00,42.3,27.7,30.10,WNW,297,3.1,4.0,56,0.00,,CLR,0.00,VWS V13.00,2013-05-14 11:27:00,
2013-05-14 07:32:00,46.0,29.9,30.10,West,263,3.1,4.0,53,0.00,,CLR,0.00,VWS V13.00,2013-05-14 11:32:00,
2013-05-14 07:37:00,47.7,30.4,30.07,SW,222,3.1,4.9,51,0.00,,CLR,0.00,VWS V13.00,2013-05-14 11:37:00,
2013-05-14 07:40:00,48.7,31.0,30.07,SW,222,0.0,4.9,50,0.00,,CLR,0.00,VWS V13.00,2013-05-14 11:40:00,
2013-05-14 07:42:00,49.5,31.6,30.07,SSW,196,3.6,3.6,50,0.00,,CLR,0.00,VWS V13.00,2013-05-14 11:42:00,
2013-05-14 07:47:00,49.6,30.2,30.07,SW,230,3.1,5.4,47,0.00,,CLR,0.00,VWS V13.00,2013-05-14 11:47:00,
2013-05-14 07:52:00,48.7,28.9,30.10,WSW,244,3.1,5.4,46,0.00,,CLR,0.00,VWS V13.00,2013-05-14 11:52:00,
2013-05-14 07:57:00,48.4,28.0,30.10,SSW,205,2.2,7.6,45,0.00,,CLR,0.00,VWS V13.00,2013-05-14 11:57:00,
2013-05-14 08:00:00,48.4,28.0,30.10,SW,233,0.0,7.6,45,0.00,,CLR,0.00,VWS V13.00,2013-05-14 12:00:00,
2013-05-14 08:02:00,48.7,28.4,30.10,SW,230,2.7,3.6,45,0.00,,CLR,0.00,VWS V13.00,2013-05-14 12:02:00,
2013-05-14 08:07:00,48.0,27.7,30.10,WNW,286,7.2,8.7,45,0.00,,CLR,0.00,VWS V13.00,2013-05-14 12:07:00,
2013-05-14 08:12:00,48.2,27.3,30.10,SSW,203,0.0,8.7,44,0.00,,CLR,0.00,VWS V13.00,2013-05-14 12:12:00,
2013-05-14 08:17:00,47.8,27.0,30.10,SE,125,0.0,8.7,44,0.00,,CLR,0.00,VWS V13.00,2013-05-14 12:17:00,
2013-05-14 08:20:00,48.2,27.3,30.10,SSW,198,0.0,8.7,44,0.00,,CLR,0.00,VWS V13.00,2013-05-14 12:20:00,
2013-05-14 08:22:00,48.2,27.3,30.10,ESE,103,0.0,5.4,44,0.00,,CLR,0.00,VWS V13.00,2013-05-14 12:22:00,
2013-05-14 08:27:00,47.5,26.7,30.10,ENE,72,0.0,8.1,44,0.00,,CLR,0.00,VWS V13.00,2013-05-14 12:27:00,
2013-05-14 08:32:00,47.8,27.0,30.10,ENE,73,0.0,8.1,44,0.00,,CLR,0.00,VWS V13.00,2013-05-14 12:32:00,
2013-05-14 08:37:00,47.5,26.7,30.10,SSW,202,0.0,8.1,44,0.00,,CLR,0.00,VWS V13.00,2013-05-14 12:37:00,
2013-05-14 08:40:00,47.3,26.5,30.10,ESE,111,2.7,8.1,44,0.00,,CLR,0.00,VWS V13.00,2013-05-14 12:40:00,
2013-05-14 08:42:00,47.5,26.7,30.10,SE,127,3.1,5.8,44,0.00,,CLR,0.00,VWS V13.00,2013-05-14 12:42:00,
2013-05-14 08:47:00,48.2,27.3,30.10,SW,226,0.0,5.8,44,0.00,,CLR,0.00,VWS V13.00,2013-05-14 12:47:00,
2013-05-14 08:52:00,49.8,28.2,30.10,WSW,238,3.6,8.3,43,0.00,,CLR,0.00,VWS V13.00,2013-05-14 12:52:00,
2013-05-14 08:57:00,50.9,28.6,30.10,SE,135,0.0,8.3,42,0.00,,CLR,0.00,VWS V13.00,2013-05-14 12:57:00,
2013-05-14 09:00:00,50.0,27.8,30.10,East,91,0.0,8.3,42,0.00,,CLR,0.00,VWS V13.00,2013-05-14 13:00:00,
2013-05-14 09:03:00,49.3,27.2,30.10,West,260,0.0,4.0,42,0.00,,CLR,0.00,VWS V13.00,2013-05-14 13:03:00,
2013-05-14 09:08:00,48.7,26.7,30.10,South,172,2.2,6.3,42,0.00,,CLR,0.00,VWS V13.00,2013-05-14 13:08:00,
2013-05-14 09:13:00,49.1,27.6,30.10,WSW,249,3.6,6.3,43,0.00,,CLR,0.00,VWS V13.00,2013-05-14 13:13:00,
2013-05-14 09:18:00,48.7,26.7,30.10,SW,228,0.0,6.3,42,0.00,,CLR,0.00,VWS V13.00,2013-05-14 13:18:00,
2013-05-14 09:20:00,48.6,26.5,30.10,South,188,0.0,6.3,42,0.00,,CLR,0.00,VWS V13.00,2013-05-14 13:20:00,
2013-05-14 09:23:00,48.4,26.4,30.10,NE,34,2.7,5.4,42,0.00,,CLR,0.00,VWS V13.00,2013-05-14 13:23:00,
2013-05-14 09:28:00,48.7,26.7,30.10,SSW,202,0.0,5.4,42,0.00,,CLR,0.00,VWS V13.00,2013-05-14 13:28:00,
2013-05-14 09:33:00,49.5,27.3,30.10,ESE,119,0.0,5.4,42,0.00,,CLR,0.00,VWS V13.00,2013-05-14 13:33:00,
2013-05-14 09:38:00,50.0,27.8,30.07,SW,231,0.0,5.4,42,0.00,,CLR,0.00,VWS V13.00,2013-05-14 13:38:00,
2013-05-14 09:40:00,50.0,27.2,30.07,West,277,0.0,5.4,41,0.00,,CLR,0.00,VWS V13.00,2013-05-14 13:40:00,
2013-05-14 09:43:00,50.4,27.6,30.07,WSW,254,3.6,4.9,41,0.00,,CLR,0.00,VWS V13.00,2013-05-14 13:43:00,
2013-05-14 09:48:00,49.3,26.0,30.07,West,265,3.1,10.1,40,0.00,,CLR,0.00,VWS V13.00,2013-05-14 13:48:00,
2013-05-14 09:53:00,49.5,26.2,30.07,SSE,157,4.0,10.1,40,0.00,,CLR,0.00,VWS V13.00,2013-05-14 13:53:00,
2013-05-14 09:58:00,50.0,26.6,30.07,South,186,2.7,10.1,40,0.00,,CLR,0.00,VWS V13.00,2013-05-14 13:58:00,
2013-05-14 10:00:00,50.0,26.0,30.07,East,92,2.2,10.1,39,0.00,,CLR,0.00,VWS V13.00,2013-05-14 14:00:00,
2013-05-14 10:03:00,50.2,26.2,30.07,ESE,118,6.3,6.3,39,0.00,,CLR,0.00,VWS V13.00,2013-05-14 14:03:00,
2013-05-14 10:09:00,50.7,26.7,30.07,East,90,3.1,6.3,39,0.00,,CLR,0.00,VWS V13.00,2013-05-14 14:09:00,
2013-05-14 10:14:00,51.1,27.0,30.07,West,272,3.6,6.3,39,0.00,,CLR,0.00,VWS V13.00,2013-05-14 14:14:00,
2013-05-14 10:19:00,52.7,28.5,30.07,West,270,2.2,6.3,39,0.00,,CLR,0.00,VWS V13.00,2013-05-14 14:19:00,
2013-05-14 10:20:00,52.9,28.0,30.07,ESE,119,0.0,6.3,38,0.00,,CLR,0.00,VWS V13.00,2013-05-14 14:20:00,
2013-05-14 10:24:00,52.9,28.0,30.07,West,262,2.7,4.9,38,0.00,,CLR,0.00,VWS V13.00,2013-05-14 14:24:00,
2013-05-14 10:29:00,52.7,27.8,30.07,East,88,0.0,5.4,38,0.00,,CLR,0.00,VWS V13.00,2013-05-14 14:29:00,
2013-05-14 10:34:00,53.1,27.5,30.07,West,260,0.0,8.3,37,0.00,,CLR,0.00,VWS V13.00,2013-05-14 14:34:00,
2013-05-14 10:39:00,53.4,27.8,30.07,North,357,2.7,10.1,37,0.00,,CLR,0.00,VWS V13.00,2013-05-14 14:39:00,
2013-05-14 10:40:00,53.4,27.8,30.07,West,261,6.3,10.1,37,0.00,,CLR,0.00,VWS V13.00,2013-05-14 14:40:00,
2013-05-14 10:44:00,54.0,28.3,30.07,SW,236,9.2,9.2,37,0.00,,CLR,0.00,VWS V13.00,2013-05-14 14:44:00,
2013-05-14 10:49:00,54.0,27.6,30.07,SE,145,3.1,9.2,36,0.00,,CLR,0.00,VWS V13.00,2013-05-14 14:49:00,
2013-05-14 10:54:00,54.1,27.8,30.07,ESE,113,2.2,9.2,36,0.00,,CLR,0.00,VWS V13.00,2013-05-14 14:54:00,
2013-05-14 10:59:00,55.4,28.9,30.07,WSW,247,4.5,9.2,36,0.00,,CLR,0.00,VWS V13.00,2013-05-14 14:59:00,
2013-05-14 11:00:00,55.4,28.9,30.07,West,264,7.6,9.2,36,0.00,,CLR,0.00,VWS V13.00,2013-05-14 15:00:00,
2013-05-14 11:04:00,54.3,28.0,30.07,SSW,202,7.6,11.0,36,0.00,,CLR,0.00,VWS V13.00,2013-05-14 15:04:00,
2013-05-14 11:09:00,54.5,28.1,30.07,SW,234,3.1,11.0,36,0.00,,CLR,0.00,VWS V13.00,2013-05-14 15:09:00,
2013-05-14 11:14:00,54.9,28.4,30.07,WSW,241,2.7,11.0,36,0.00,,CLR,0.00,VWS V13.00,2013-05-14 15:14:00,
2013-05-14 11:20:00,54.7,28.3,30.07,SSW,200,0.0,11.0,36,0.00,,CLR,0.00,VWS V13.00,2013-05-14 15:20:00,
2013-05-14 11:25:00,55.6,28.4,30.07,North,6,0.0,7.6,35,0.00,,CLR,0.00,VWS V13.00,2013-05-14 15:25:00,
2013-05-14 11:30:00,54.7,27.6,30.07,East,101,3.1,7.6,35,0.00,,CLR,0.00,VWS V13.00,2013-05-14 15:30:00,
2013-05-14 11:35:00,54.5,27.4,30.07,SE,130,3.6,7.6,35,0.00,,CLR,0.00,VWS V13.00,2013-05-14 15:35:00,
2013-05-14 11:40:00,55.2,28.1,30.07,WSW,238,2.7,7.6,35,0.00,,CLR,0.00,VWS V13.00,2013-05-14 15:40:00,
2013-05-14 11:45:00,54.5,26.7,30.07,West,269,0.0,9.2,34,0.00,,CLR,0.00,VWS V13.00,2013-05-14 15:45:00,
2013-05-14 11:50:00,54.5,26.7,30.07,East,92,0.0,9.2,34,0.00,,CLR,0.00,VWS V13.00,2013-05-14 15:50:00,
2013-05-14 11:55:00,54.7,26.2,30.07,West,262,0.0,9.2,33,0.00,,CLR,0.00,VWS V13.00,2013-05-14 15:55:00,
2013-05-14 12:00:00,55.9,28.0,30.07,ESE,103,0.0,9.2,34,0.00,,CLR,0.00,VWS V13.00,2013-05-14 16:00:00,
2013-05-14 12:05:00,55.8,26.4,30.04,NNE,26,0.0,8.1,32,0.00,,CLR,0.00,VWS V13.00,2013-05-14 16:05:00,
2013-05-14 12:10:00,55.9,26.5,30.04,SE,140,0.0,8.1,32,0.00,,CLR,0.00,VWS V13.00,2013-05-14 16:10:00,
2013-05-14 12:15:00,56.5,27.0,30.04,SW,227,4.0,8.1,32,0.00,,CLR,0.00,VWS V13.00,2013-05-14 16:15:00,
2013-05-14 12:20:00,56.3,26.8,30.04,West,268,0.0,0.0,32,0.00,,CLR,0.00,VWS V13.00,2013-05-14 16:20:00,
2013-05-14 12:25:00,56.7,26.4,30.04,SW,231,0.0,4.9,31,0.00,,CLR,0.00,VWS V13.00,2013-05-14 16:25:00,
2013-05-14 12:30:00,56.5,25.4,30.04,East,84,3.1,5.4,30,0.00,,CLR,0.00,VWS V13.00,2013-05-14 16:30:00,
2013-05-14 12:35:00,57.4,27.0,30.04,WSW,257,4.9,8.7,31,0.00,,FEW065,0.00,VWS V13.00,2013-05-14 16:35:00,
2013-05-14 12:40:00,57.6,26.4,30.04,NE,35,0.0,2.7,30,0.00,,FEW065,0.00,VWS V13.00,2013-05-14 16:40:00,
2013-05-14 12:45:00,57.2,26.1,30.04,WSW,248,2.7,6.3,30,0.00,,FEW065,0.00,VWS V13.00,2013-05-14 16:45:00,
2013-05-14 12:50:00,57.6,25.6,30.04,SW,236,4.9,6.3,29,0.00,,FEW065,0.00,VWS V13.00,2013-05-14 16:50:00,
2013-05-14 12:55:00,58.1,26.9,30.04,SSE,159,0.0,6.3,30,0.00,,FEW065,0.00,VWS V13.00,2013-05-14 16:55:00,
2013-05-14 13:00:00,59.5,28.1,30.04,WSW,252,0.0,6.3,30,0.00,,CLR,0.00,VWS V13.00,2013-05-14 17:00:00,
2013-05-14 13:01:00,59.5,28.1,30.04,West,261,2.2,2.2,30,0.00,,FEW065,0.00,VWS V13.00,2013-05-14 17:01:00,
2013-05-14 13:06:00,59.5,26.4,30.04,NE,43,2.2,5.8,28,0.00,,FEW065,0.00,VWS V13.00,2013-05-14 17:06:00,
2013-05-14 13:11:00,59.5,26.4,30.04,SW,216,4.0,8.3,28,0.00,,FEW065,0.00,VWS V13.00,2013-05-14 17:11:00,
2013-05-14 13:16:00,58.6,25.6,30.04,WSW,243,3.1,8.3,28,0.00,,FEW065,0.00,VWS V13.00,2013-05-14 17:16:00,
2013-05-14 13:20:00,58.6,25.6,30.04,ENE,75,3.1,8.3,28,0.00,,CLR,0.00,VWS V13.00,2013-05-14 17:20:00,
2013-05-14 13:21:00,58.6,25.6,30.04,West,261,4.0,4.0,28,0.00,,FEW065,0.00,VWS V13.00,2013-05-14 17:21:00,
2013-05-14 13:26:00,59.7,25.7,30.04,SW,214,0.0,8.1,27,0.00,,FEW065,0.00,VWS V13.00,2013-05-14 17:26:00,
2013-05-14 13:31:00,60.1,26.0,30.04,SW,216,4.9,9.6,27,0.00,,FEW065,0.00,VWS V13.00,2013-05-14 17:31:00,
2013-05-14 13:36:00,59.2,24.3,30.04,WNW,286,0.0,9.6,26,0.00,,CLR,0.00,VWS V13.00,2013-05-14 17:36:00,
2013-05-14 13:40:00,59.2,24.3,30.04,WSW,237,3.1,9.6,26,0.00,,CLR,0.00,VWS V13.00,2013-05-14 17:40:00,
2013-05-14 13:41:00,59.4,24.5,30.04,NNE,33,3.6,3.6,26,0.00,,CLR,0.00,VWS V13.00,2013-05-14 17:41:00,
2013-05-14 13:46:00,59.7,24.8,30.04,SW,236,3.6,5.8,26,0.00,,CLR,0.00,VWS V13.00,2013-05-14 17:46:00,
2013-05-14 13:51:00,60.3,25.3,30.04,East,88,4.0,6.3,26,0.00,,CLR,0.00,VWS V13.00,2013-05-14 17:51:00,
2013-05-14 13:56:00,59.5,23.7,30.04,SW,223,3.6,6.3,25,0.00,,CLR,0.00,VWS V13.00,2013-05-14 17:56:00,
2013-05-14 14:00:00,59.4,23.6,30.04,ENE,75,2.2,6.3,25,0.00,,CLR,0.00,VWS V13.00,2013-05-14 18:00:00,
2013-05-14 14:01:00,59.4,23.6,30.04,West,266,5.8,5.8,25,0.00,,CLR,0.00,VWS V13.00,2013-05-14 18:01:00,
2013-05-14 14:06:00,59.5,24.6,30.04,South,185,5.8,10.5,26,0.00,,CLR,0.00,VWS V13.00,2013-05-14 18:06:00,
2013-05-14 14:11:00,60.1,25.1,30.04,ESE,121,2.7,10.5,26,0.00,,CLR,0.00,VWS V13.00,2013-05-14 18:11:00,
2013-05-14 14:16:00,59.9,25.0,30.04,SSE,158,2.7,10.5,26,0.00,,CLR,0.00,VWS V13.00,2013-05-14 18:16:00,
2013-05-14 14:20:00,60.3,25.3,30.04,WSW,253,3.6,10.5,26,0.00,,CLR,0.00,VWS V13.00,2013-05-14 18:20:00,
2013-05-14 14:21:00,60.3,25.3,30.04,NNE,12,2.7,3.6,26,0.00,,CLR,0.00,VWS V13.00,2013-05-14 18:21:00,
2013-05-14 14:26:00,61.0,25.9,30.04,South,187,3.1,5.4,26,0.00,,CLR,0.00,VWS V13.00,2013-05-14 18:26:00,
2013-05-14 14:32:00,61.3,26.2,30.04,WSW,258,5.8,8.3,26,0.00,,CLR,0.00,VWS V13.00,2013-05-14 18:32:00,
2013-05-14 14:37:00,61.7,26.5,30.04,SSW,205,4.0,8.3,26,0.00,,CLR,0.00,VWS V13.00,2013-05-14 18:37:00,
2013-05-14 14:40:00,61.7,26.5,30.04,WSW,244,5.8,8.3,26,0.00,,CLR,0.00,VWS V13.00,2013-05-14 18:40:00,
2013-05-14 14:42:00,61.2,25.1,30.04,South,175,3.6,7.6,25,0.00,,CLR,0.00,VWS V13.00,2013-05-14 18:42:00,
2013-05-14 14:47:00,61.5,25.4,30.04,WNW,294,2.7,7.6,25,0.00,,CLR,0.00,VWS V13.00,2013-05-14 18:47:00,
2013-05-14 14:52:00,61.5,25.4,30.04,WSW,244,4.0,7.6,25,0.00,,CLR,0.00,VWS V13.00,2013-05-14 18:52:00,
2013-05-14 14:57:00,61.7,25.5,30.04,SSE,168,0.0,7.6,25,0.00,,CLR,0.00,VWS V13.00,2013-05-14 18:57:00,
2013-05-14 15:00:00,62.2,26.0,30.04,SW,235,3.6,7.6,25,0.00,,CLR,0.00,VWS V13.00,2013-05-14 19:00:00,
2013-05-14 15:02:00,62.6,26.3,30.04,West,265,6.7,6.7,25,0.00,,CLR,0.00,VWS V13.00,2013-05-14 19:02:00,
2013-05-14 15:07:00,62.1,25.9,30.01,ENE,58,0.0,8.7,25,0.00,,CLR,0.00,VWS V13.00,2013-05-14 19:07:00,
2013-05-14 15:12:00,61.9,25.7,30.01,South,189,3.1,8.7,25,0.00,,CLR,0.00,VWS V13.00,2013-05-14 19:12:00,
2013-05-14 15:17:00,63.1,26.8,30.01,East,95,2.7,8.7,25,0.00,,CLR,0.00,VWS V13.00,2013-05-14 19:17:00,
2013-05-14 15:20:00,63.0,26.6,30.01,SW,218,5.8,8.7,25,0.00,,CLR,0.00,VWS V13.00,2013-05-14 19:20:00,
2013-05-14 15:22:00,62.6,26.3,30.01,WSW,253,3.6,8.3,25,0.00,,CLR,0.00,VWS V13.00,2013-05-14 19:22:00,
2013-05-14 15:27:00,63.0,26.6,30.01,WNW,284,3.6,8.3,25,0.00,,CLR,0.00,VWS V13.00,2013-05-14 19:27:00,
2013-05-14 15:32:00,61.9,25.7,30.01,East,88,0.0,8.3,25,0.00,,CLR,0.00,VWS V13.00,2013-05-14 19:32:00,
2013-05-14 15:37:00,61.3,25.2,30.01,West,267,0.0,8.3,25,0.00,,CLR,0.00,VWS V13.00,2013-05-14 19:37:00,
2013-05-14 15:40:00,61.5,25.4,30.01,East,88,0.0,8.3,25,0.00,,CLR,0.00,VWS V13.00,2013-05-14 19:40:00,
2013-05-14 15:42:00,61.0,24.9,30.01,East,79,3.1,4.0,25,0.00,,CLR,0.00,VWS V13.00,2013-05-14 19:42:00,
2013-05-14 15:47:00,61.3,25.2,30.01,South,181,2.2,5.4,25,0.00,,CLR,0.00,VWS V13.00,2013-05-14 19:47:00,
2013-05-14 15:52:00,61.3,25.2,30.01,NNE,25,3.6,5.4,25,0.00,,CLR,0.00,VWS V13.00,2013-05-14 19:52:00,
2013-05-14 15:57:00,60.6,24.6,30.01,WNW,292,0.0,5.8,25,0.00,,CLR,0.00,VWS V13.00,2013-05-14 19:57:00,
2013-05-14 16:00:00,60.4,24.5,30.01,NE,34,3.1,5.8,25,0.00,,CLR,0.00,VWS V13.00,2013-05-14 20:00:00,
2013-05-14 16:02:00,60.3,24.3,30.01,WSW,253,3.6,3.6,25,0.00,,CLR,0.00,VWS V13.00,2013-05-14 20:02:00,
2013-05-14 16:07:00,60.6,24.6,30.01,SW,218,0.0,4.9,25,0.00,,CLR,0.00,VWS V13.00,2013-05-14 20:07:00,
2013-05-14 16:12:00,60.6,24.6,30.01,WNW,302,4.9,8.3,25,0.00,,CLR,0.00,VWS V13.00,2013-05-14 20:12:00,
2013-05-14 16:17:00,60.3,24.3,30.01,SW,214,4.9,8.3,25,0.00,,CLR,0.00,VWS V13.00,2013-05-14 20:17:00,
2013-05-14 16:20:00,61.0,24.9,30.01,South,170,0.0,8.3,25,0.00,,CLR,0.00,VWS V13.00,2013-05-14 20:20:00,
2013-05-14 16:22:00,61.3,25.2,30.01,West,261,3.1,3.1,25,0.00,,CLR,0.00,VWS V13.00,2013-05-14 20:22:00,
2013-05-14 16:28:00,61.0,24.9,30.01,SSW,197,2.2,6.3,25,0.00,,CLR,0.00,VWS V13.00,2013-05-14 20:28:00,
2013-05-14 16:33:00,61.5,25.4,30.01,SW,222,2.7,8.3,25,0.00,,CLR,0.00,VWS V13.00,2013-05-14 20:33:00,
2013-05-14 16:38:00,61.5,25.4,30.01,SW,234,4.0,8.3,25,0.00,,CLR,0.00,VWS V13.00,2013-05-14 20:38:00,
2013-05-14 16:40:00,61.7,25.5,30.01,South,186,0.0,8.3,25,0.00,,CLR,0.00,VWS V13.00,2013-05-14 20:40:00,
2013-05-14 16:43:00,62.1,25.9,30.01,West,264,0.0,5.4,25,0.00,,CLR,0.00,VWS V13.00,2013-05-14 20:43:00,
2013-05-14 16:48:00,61.7,25.5,30.01,South,188,0.0,5.4,25,0.00,,CLR,0.00,VWS V13.00,2013-05-14 20:48:00,
2013-05-14 16:53:00,61.5,25.4,30.01,SW,233,0.0,7.2,25,0.00,,CLR,0.00,VWS V13.00,2013-05-14 20:53:00,
2013-05-14 16:58:00,61.3,25.2,30.01,West,266,0.0,8.3,25,0.00,,CLR,0.00,VWS V13.00,2013-05-14 20:58:00,
2013-05-14 17:00:00,60.8,23.8,30.01,West,264,0.0,8.3,24,0.00,,CLR,0.00,VWS V13.00,2013-05-14 21:00:00,
2013-05-14 17:03:00,61.0,24.9,30.01,SSE,159,0.0,5.4,25,0.00,,CLR,0.00,VWS V13.00,2013-05-14 21:03:00,
2013-05-14 17:08:00,60.8,24.8,29.98,NE,51,0.0,8.7,25,0.00,,CLR,0.00,VWS V13.00,2013-05-14 21:08:00,
2013-05-14 17:13:00,60.3,24.3,29.98,WSW,250,6.3,8.7,25,0.00,,CLR,0.00,VWS V13.00,2013-05-14 21:13:00,
2013-05-14 17:18:00,60.4,24.5,29.98,SW,220,3.1,8.7,25,0.00,,CLR,0.00,VWS V13.00,2013-05-14 21:18:00,
2013-05-14 17:20:00,60.4,24.5,30.01,SW,217,0.0,8.7,25,0.00,,CLR,0.00,VWS V13.00,2013-05-14 21:20:00,
2013-05-14 17:23:00,60.4,24.5,30.01,SW,236,4.0,6.3,25,0.00,,CLR,0.00,VWS V13.00,2013-05-14 21:23:00,
2013-05-14 17:28:00,60.3,24.3,30.01,West,266,0.0,6.3,25,0.00,,CLR,0.00,VWS V13.00,2013-05-14 21:28:00,
2013-05-14 17:33:00,59.4,23.6,30.01,WSW,253,4.0,6.3,25,0.00,,CLR,0.00,VWS V13.00,2013-05-14 21:33:00,
2013-05-14 17:39:00,59.5,23.7,30.01,SSW,212,0.0,8.3,25,0.00,,CLR,0.00,VWS V13.00,2013-05-14 21:39:00,
2013-05-14 17:40:00,59.5,23.7,30.01,West,270,3.6,8.3,25,0.00,,CLR,0.00,VWS V13.00,2013-05-14 21:40:00,
2013-05-14 17:44:00,59.5,23.7,30.01,West,269,5.4,5.4,25,0.00,,CLR,0.00,VWS V13.00,2013-05-14 21:44:00,
2013-05-14 17:49:00,59.2,23.4,30.01,WNW,293,3.6,10.5,25,0.00,,CLR,0.00,VWS V13.00,2013-05-14 21:49:00,
2013-05-14 17:54:00,59.2,23.4,29.98,SW,226,3.6,10.5,25,0.00,,CLR,0.00,VWS V13.00,2013-05-14 21:54:00,
2013-05-14 17:59:00,59.0,23.2,29.98,SW,229,0.0,10.5,25,0.00,,CLR,0.00,VWS V13.00,2013-05-14 21:59:00,
2013-05-14 18:00:00,59.0,23.2,29.98,ENE,76,2.7,10.5,25,0.00,,CLR,0.00,VWS V13.00,2013-05-14 22:00:00,
2013-05-14 18:04:00,58.6,23.9,29.98,SE,138,0.0,2.7,26,0.00,,CLR,0.00,VWS V13.00,2013-05-14 22:04:00,
2013-05-14 18:09:00,58.3,23.6,29.98,SSE,160,0.0,3.6,26,0.00,,CLR,0.00,VWS V13.00,2013-05-14 22:09:00,
2013-05-14 18:14:00,58.1,22.5,29.98,NNE,22,0.0,5.4,25,0.00,,CLR,0.00,VWS V13.00,2013-05-14 22:14:00,
2013-05-14 18:19:00,58.1,22.5,29.98,WSW,256,3.6,5.4,25,0.00,,CLR,0.00,VWS V13.00,2013-05-14 22:19:00,
2013-05-14 18:20:00,58.1,22.5,29.98,West,259,0.0,5.4,25,0.00,,CLR,0.00,VWS V13.00,2013-05-14 22:20:00,
2013-05-14 18:24:00,58.3,23.6,29.98,West,259,0.0,0.0,26,0.00,,CLR,0.00,VWS V13.00,2013-05-14 22:24:00,
2013-05-14 18:29:00,58.1,23.4,29.98,West,259,4.9,6.3,26,0.00,,CLR,0.00,VWS V13.00,2013-05-14 22:29:00,
2013-05-14 18:34:00,57.9,23.3,29.98,West,268,0.0,6.3,26,0.00,,CLR,0.00,VWS V13.00,2013-05-14 22:34:00,
2013-05-14 18:39:00,57.7,23.1,29.98,WSW,255,3.6,6.3,26,0.00,,CLR,0.00,VWS V13.00,2013-05-14 22:39:00,
2013-05-14 18:40:00,57.6,23.0,29.98,SSE,157,3.1,6.3,26,0.00,,CLR,0.00,VWS V13.00,2013-05-14 22:40:00,
2013-05-14 18:44:00,57.4,22.8,29.98,West,261,2.2,5.4,26,0.00,,CLR,0.00,VWS V13.00,2013-05-14 22:44:00,
2013-05-14 18:49:00,57.2,22.6,29.98,West,261,2.7,5.4,26,0.00,,CLR,0.00,VWS V13.00,2013-05-14 22:49:00,
2013-05-14 18:54:00,57.0,22.5,29.98,WSW,252,3.6,6.3,26,0.00,,CLR,0.00,VWS V13.00,2013-05-14 22:54:00,
2013-05-14 18:59:00,56.8,22.3,29.98,West,263,0.0,6.3,26,0.00,,CLR,0.00,VWS V13.00,2013-05-14 22:59:00,
2013-05-14 19:00:00,56.8,22.3,29.98,West,265,3.6,6.3,26,0.00,,CLR,0.00,VWS V13.00,2013-05-14 23:00:00,
2013-05-14 19:04:00,56.5,22.9,29.98,West,279,0.0,4.0,27,0.00,,CLR,0.00,VWS V13.00,2013-05-14 23:04:00,
2013-05-14 19:10:00,56.3,22.8,29.98,SW,216,0.0,5.4,27,0.00,,CLR,0.00,VWS V13.00,2013-05-14 23:10:00,
2013-05-14 19:15:00,56.1,22.6,29.98,WSW,242,0.0,6.7,27,0.00,,CLR,0.00,VWS V13.00,2013-05-14 23:15:00,
2013-05-14 19:20:00,55.8,22.3,29.98,WSW,242,0.0,6.7,27,0.00,,CLR,0.00,VWS V13.00,2013-05-14 23:20:00,
2013-05-14 19:25:00,55.4,22.0,29.98,WSW,255,0.0,5.8,27,0.00,,CLR,0.00,VWS V13.00,2013-05-14 23:25:00,
2013-05-14 19:30:00,55.2,22.7,29.98,SW,224,0.0,5.8,28,0.00,,CLR,0.00,VWS V13.00,2013-05-14 23:30:00,
2013-05-14 19:35:00,54.9,22.4,29.98,SW,227,0.0,5.8,28,0.00,,CLR,0.00,VWS V13.00,2013-05-14 23:35:00,
2013-05-14 19:40:00,54.5,22.9,29.98,SW,228,0.0,5.8,29,0.00,,CLR,0.00,VWS V13.00,2013-05-14 23:40:00,
2013-05-14 19:45:00,54.5,22.9,29.98,SW,228,0.0,5.8,29,0.00,,CLR,0.00,VWS V13.00,2013-05-14 23:45:00,
2013-05-14 20:43:00,54.5,22.9,29.98,SW,228,0.0,5.8,29,0.00,,CLR,0.00,VWS V13.00,2013-05-15 00:43:00,